Showing default

IRS P4 (OCEANSAT 1), 25758

Orbit data source: Space-Track

IRS P4 (OCEANSAT 1), 25758 is a payload satellite owned by ISRO (IN) in SSO that was launched on Wed, 26 May 1999 UTC via a PSLV launch vehicle from the Sirharikota (SRI). Payload-class satellites include a variety of spacecraft equipped with specific instruments for various scientific and technological missions. These include communications satellites like Starlink; space stations such as the ISS; scientific satellites like the Hubble; Earth observation satellites from companies like Planet Labs, Umbra, and HawkEye 360; GPS; miniature CubeSats for education and research; and military/defense satellites.

Loading next visibility...
Identifier
25758, 1999-029C
Orbit
SSO
Country
Flag of ININ / IND
Related business
Manufacturer
ISAC/HAL
Mission
Non-operational Civil Imaging
Bus & Motor
IRS, AOCS
Mass
1,036 kg wet, 952 kg dry
Launch date (UTC)
1999-05-26 (26 years ago)
Launch vehicle
PSLV
Launch site
Sirharikota (SRI)
Object type
Payload
Rocket body
Debris
Shape & HBR
Box + 1 Pan, 5.8 m
Radar Cross Section
12.382 m², Large (>1 m²)

Expand to show TLE details & history
Last TLE update: 14 hours ago

TLE from 14 hours ago
0 IRS P4 (OCEANSAT 1)
1 25758U 99029C   25259.22134665  .00000464  00000-0  11769-3 0  9999
2 25758  97.9361 240.3067 0001531 304.2161  55.8892 14.54894534394272
Epoch: 2025-09-16T05:18Z
TLE epoch observation values (Epoch: 2025-09-16T05:18:44.35Z)
Latitude
-0.00001°
Longitude
165.20715°
Altitude
712.085 km
Speed
7.5 km/s
True Right ascension
16h 01m 13s
True Declination
0° 00' 00"
Sunlit
Object was in daylight at epoch
Visualization orbit readout
Latitude
Unknown
Longitude
Unknown
Altitude
Unknown
Speed
Unknown
Apparent Right ascension
Unknown
Apparent Declination
Unknown
Sunlit
N/A
Visualization observer readout
Local Sidereal Time
12:10:28
Azimuth
Unknown
Elevation
Unknown
Doppler factor
Unknown
Orbital elements
Apogee altitude
707.868 km
Perigee altitude
705.699 km
Semi-major axis
7,084.92 km
Eccentricity
0.00015
Inclination
97.9361°
RAAN
240.3067°
Arg. of periapsis
304.2161°
True anomaly
55.90373°
Mean anomaly
55.8892°
Eccentric anomaly
55.89646°
Mean motion
3.63949 °/min
Orbital period
98.91 mins
BSTAR
0.00011769
Loading maneuver chart data...
Computing Atmospheric mass density...
Loading historical data...
Loading historical data...
Loading historical data...
Loading historical data...
Loading historical data...
Loading historical data...
Loading historical data...
Other satellites on launch #29 in the year 1999 (1999-05-26 UTC)

Documentation

Showing up to 5 results
|